When you browse on this site, cookies collect data to enhance your experience and personalize the content and advertising you see.
Visit our Privacy Policy to learn more. By continuing to use the site, you agree to this use of cookies and data.
  • In Hungary
  • List of Countries
  • For 7 days
  • Water Temperature
  • Satellite Maps
  • Weather Map
  • News
  • Weather Widgets
  • user-avatar
    Login

    Hourly Weather Rogoz

    Today, 25 May, Saturday

    Time Temperature Precipitation Wind Pressure Humidity
    00:00 +12°C° 0 mm 2 mps 747 mmHg 69%
    01:00 +10°C° 0 mm 2 mps 747 mmHg 71%
    02:00 +10°C° 0 mm 2 mps 747 mmHg 75%
    03:00 +10°C° 0 mm 2 mps 747 mmHg 79%
    04:00 +10°C° 0 mm 2 mps 747 mmHg 83%
    05:00 +13°C° 0 mm 2 mps 747 mmHg 81%
    06:00 +14°C° 0 mm 3 mps 748 mmHg 80%
    07:00 +16°C° 0 mm 3 mps 748 mmHg 79%
    08:00 +17°C° 0.1 mm 3 mps 748 mmHg 76%
    09:00 +19°C° 0.1 mm 4 mps 748 mmHg 73%
    10:00 +20°C° 0.1 mm 4 mps 748 mmHg 69%
    11:00 +20°C° 0.5 mm 4 mps 748 mmHg 67%
    12:00 +21°C° 0.5 mm 4 mps 748 mmHg 65%
    13:00 +21°C° 0.5 mm 4 mps 748 mmHg 63%
    14:00 +21°C° 0.2 mm 3 mps 748 mmHg 62%
    15:00 +21°C° 0.2 mm 3 mps 747 mmHg 60%
    16:00 +21°C° 0.2 mm 3 mps 747 mmHg 58%
    17:00 +20°C° 0 mm 3 mps 747 mmHg 64%
    18:00 +19°C° 0 mm 2 mps 747 mmHg 69%
    19:00 +18°C° 0 mm 2 mps 748 mmHg 74%
    20:00 +16°C° 0 mm 2 mps 748 mmHg 77%
    21:00 +15°C° 0 mm 2 mps 748 mmHg 80%
    22:00 +14°C° 0 mm 2 mps 748 mmHg 84%
    23:00 +13°C° 0 mm 2 mps 748 mmHg 86%

    Tomorrow, 26 May, Sunday

    Time Temperature Precipitation Wind Pressure Humidity
    00:00 +12°C° 0 mm 2 mps 748 mmHg 88%
    01:00 +10°C° 0 mm 2 mps 748 mmHg 90%
    02:00 +10°C° 0 mm 2 mps 748 mmHg 91%
    03:00 +10°C° 0 mm 1 mps 748 mmHg 92%
    04:00 +10°C° 0 mm 1 mps 748 mmHg 92%
    05:00 +11°C° 0 mm 1 mps 748 mmHg 87%
    06:00 +13°C° 0 mm 2 mps 748 mmHg 82%
    07:00 +15°C° 0 mm 2 mps 748 mmHg 77%
    08:00 +16°C° 0 mm 2 mps 748 mmHg 72%
    09:00 +18°C° 0 mm 3 mps 748 mmHg 67%
    10:00 +19°C° 0 mm 3 mps 748 mmHg 61%
    11:00 +20°C° 0 mm 4 mps 748 mmHg 59%
    12:00 +21°C° 0 mm 4 mps 747 mmHg 57%
    13:00 +22°C° 0 mm 4 mps 747 mmHg 54%
    14:00 +22°C° 0 mm 4 mps 747 mmHg 55%
    15:00 +22°C° 0 mm 4 mps 746 mmHg 56%
    16:00 +22°C° 0 mm 4 mps 746 mmHg 58%
    17:00 +21°C° 0 mm 3 mps 746 mmHg 63%
    18:00 +20°C° 0 mm 3 mps 746 mmHg 68%
    19:00 +19°C° 0 mm 2 mps 746 mmHg 73%
    20:00 +17°C° 0 mm 2 mps 747 mmHg 75%
    21:00 +16°C° 0 mm 2 mps 747 mmHg 77%
    22:00 +15°C° 0 mm 2 mps 747 mmHg 79%
    23:00 +15°C° 0 mm 2 mps 747 mmHg 82%

    Day after tomorrow, 27 May, Monday

    Time Temperature Precipitation Wind Pressure Humidity
    00:00 +14°C° 0 mm 2 mps 746 mmHg 84%
    01:00 +14°C° 0 mm 2 mps 746 mmHg 87%
    02:00 +14°C° 0 mm 2 mps 746 mmHg 88%
    03:00 +13°C° 0 mm 2 mps 746 mmHg 89%
    04:00 +13°C° 0 mm 2 mps 745 mmHg 91%
    05:00 +14°C° 0 mm 3 mps 745 mmHg 85%
    06:00 +17°C° 0 mm 4 mps 745 mmHg 80%
    07:00 +19°C° 0 mm 4 mps 745 mmHg 74%
    08:00 +20°C° 0 mm 4 mps 745 mmHg 69%
    09:00 +21°C° 0 mm 4 mps 745 mmHg 63%
    10:00 +23°C° 0 mm 4 mps 745 mmHg 57%
    11:00 +23°C° 0 mm 4 mps 745 mmHg 55%
    12:00 +25°C° 0 mm 4 mps 745 mmHg 54%
    13:00 +26°C° 0 mm 4 mps 745 mmHg 52%
    14:00 +25°C° 0.2 mm 4 mps 744 mmHg 55%
    15:00 +25°C° 0.2 mm 3 mps 744 mmHg 57%
    16:00 +25°C° 0.2 mm 3 mps 744 mmHg 59%
    17:00 +24°C° 0.5 mm 2 mps 744 mmHg 67%
    18:00 +21°C° 0.5 mm 2 mps 744 mmHg 74%
    19:00 +21°C° 0.5 mm 1 mps 744 mmHg 81%
    20:00 +20°C° 0.1 mm 1 mps 744 mmHg 84%
    21:00 +19°C° 0.1 mm 1 mps 744 mmHg 86%
    22:00 +16°C° 0.1 mm 1 mps 744 mmHg 88%
    23:00 +16°C° 0 mm 1 mps 744 mmHg 90%

    28 May, Tuesday

    Time Temperature Precipitation Wind Pressure Humidity
    00:00 +15°C° 0 mm 1 mps 744 mmHg 91%
    01:00 +15°C° 0 mm 1 mps 743 mmHg 93%
    02:00 +15°C° 0 mm 1 mps 743 mmHg 93%
    03:00 +15°C° 0 mm 1 mps 743 mmHg 94%
    04:00 +15°C° 0 mm 1 mps 742 mmHg 95%
    05:00 +15°C° 1.2 mm 1 mps 742 mmHg 95%
    06:00 +15°C° 1.2 mm 1 mps 742 mmHg 95%
    07:00 +16°C° 1.2 mm 1 mps 742 mmHg 95%
    08:00 +16°C° 1.9 mm 1 mps 742 mmHg 96%
    09:00 +16°C° 1.9 mm 2 mps 742 mmHg 96%
    10:00 +16°C° 1.9 mm 2 mps 742 mmHg 97%
    11:00 +16°C° 0.5 mm 3 mps 742 mmHg 96%
    12:00 +15°C° 0.5 mm 4 mps 742 mmHg 95%
    13:00 +15°C° 0.5 mm 4 mps 742 mmHg 94%
    14:00 +15°C° 0.5 mm 5 mps 742 mmHg 94%
    15:00 +14°C° 0.5 mm 5 mps 742 mmHg 94%
    16:00 +14°C° 0.5 mm 6 mps 742 mmHg 94%
    17:00 +13°C° 0.5 mm 5 mps 743 mmHg 94%
    18:00 +13°C° 0.5 mm 5 mps 743 mmHg 94%
    19:00 +13°C° 0.5 mm 5 mps 743 mmHg 94%
    20:00 +13°C° 0.5 mm 5 mps 743 mmHg 95%
    21:00 +12°C° 0.5 mm 5 mps 744 mmHg 95%
    22:00 +12°C° 0.5 mm 4 mps 744 mmHg 96%
    23:00 +12°C° 0.4 mm 4 mps 744 mmHg 96%

    29 May, Wednesday

    Time Temperature Precipitation Wind Pressure Humidity
    00:00 +12°C° 0.4 mm 4 mps 744 mmHg 96%
    01:00 +12°C° 0.4 mm 4 mps 745 mmHg 96%
    02:00 +11°C° 0.3 mm 4 mps 745 mmHg 96%
    03:00 +11°C° 0.3 mm 3 mps 745 mmHg 96%
    04:00 +11°C° 0.3 mm 3 mps 746 mmHg 95%
    05:00 +11°C° 0.2 mm 3 mps 746 mmHg 94%
    06:00 +11°C° 0.2 mm 3 mps 747 mmHg 93%
    07:00 +11°C° 0.2 mm 4 mps 747 mmHg 92%
    08:00 +12°C° 0 mm 4 mps 748 mmHg 86%
    09:00 +13°C° 0 mm 4 mps 748 mmHg 81%
    10:00 +14°C° 0 mm 5 mps 749 mmHg 76%
    11:00 +15°C° 0.1 mm 5 mps 749 mmHg 75%
    12:00 +15°C° 0.1 mm 5 mps 750 mmHg 73%
    13:00 +16°C° 0.1 mm 5 mps 750 mmHg 72%
    14:00 +15°C° 0.2 mm 5 mps 750 mmHg 74%
    15:00 +15°C° 0.2 mm 5 mps 750 mmHg 77%
    16:00 +14°C° 0.2 mm 5 mps 751 mmHg 80%
    17:00 +13°C° 0.1 mm 5 mps 751 mmHg 81%
    18:00 +13°C° 0.1 mm 4 mps 751 mmHg 82%
    19:00 +12°C° 0.1 mm 4 mps 752 mmHg 84%
    20:00 +12°C° 0.1 mm 3 mps 752 mmHg 84%
    21:00 +11°C° 0.1 mm 3 mps 753 mmHg 85%
    22:00 +10°C° 0.1 mm 3 mps 754 mmHg 85%
    23:00 +10°C° 0 mm 2 mps 754 mmHg 83%

    30 May, Thursday

    Time Temperature Precipitation Wind Pressure Humidity
    00:00 +9°C° 0 mm 2 mps 754 mmHg 82%
    01:00 +8°C° 0 mm 2 mps 754 mmHg 80%
    02:00 +8°C° 0 mm 2 mps 755 mmHg 79%
    03:00 +7°C° 0 mm 2 mps 755 mmHg 79%
    04:00 +8°C° 0 mm 1 mps 755 mmHg 78%
    05:00 +9°C° 0 mm 1 mps 755 mmHg 75%
    06:00 +10°C° 0 mm 1 mps 755 mmHg 72%
    07:00 +11°C° 0 mm 1 mps 755 mmHg 68%
    08:00 +12°C° 0 mm 1 mps 755 mmHg 65%
    09:00 +14°C° 0 mm 1 mps 755 mmHg 61%
    10:00 +15°C° 0 mm 1 mps 755 mmHg 58%
    11:00 +16°C° 0 mm 1 mps 754 mmHg 56%
    12:00 +18°C° 0 mm 1 mps 754 mmHg 53%
    13:00 +18°C° 0 mm 1 mps 753 mmHg 51%
    14:00 +17°C° 0 mm 2 mps 753 mmHg 52%
    15:00 +18°C° 0 mm 2 mps 752 mmHg 54%
    16:00 +18°C° 0 mm 2 mps 752 mmHg 55%
    17:00 +17°C° 0 mm 2 mps 752 mmHg 61%
    18:00 +16°C° 0 mm 2 mps 751 mmHg 67%
    19:00 +15°C° 0 mm 2 mps 751 mmHg 73%
    20:00 +14°C° 0 mm 2 mps 751 mmHg 74%
    21:00 +12°C° 0 mm 3 mps 751 mmHg 75%
    22:00 +10°C° 0 mm 3 mps 751 mmHg 76%
    23:00 +10°C° 0 mm 3 mps 750 mmHg 79%
    Show more